Skip Page Navigation
NASA JPL Caltech
NASA Logo - Jet Propulsion Laboratory + View the NASA Portal
+ Center for Near-Earth Object Studies
JPL Home Earth Solar System Stars & Galaxies Technology
JPL Solar System Dynamics
BODIES ORBITS EPHEMERIDES TOOLS PHYSICAL DATA DISCOVERY FAQ SITE MAP
JPL Small-Body Database Browser
Search: [ help ]  
60458 (2000 CM114)
Classification: TransNeptunian Object          SPK-ID: 2060458
Ephemeris | Orbit Diagram | Orbital Elements | Physical Parameters | Discovery Circumstances ]

[ show orbit diagram ]
Orbital Elements at Epoch 2459000.5 (2020-May-31.0) TDB
Reference: JPL 5 (heliocentric ecliptic J2000)
 Element Value Uncertainty (1-sigma)   Units 
e .403464920993178 2.9424e-05  
a 59.33150169804934 0.0039361 au
q 35.39332205303926 0.00071992 au
i 19.74895474263215 9.7692e-05 deg
node 312.4218384122796 0.00012568 deg
peri 251.9565307412633 0.0036759 deg
M 343.2195638236569 0.0028772 deg
tp 2466781.352495675377
(2041-Sep-18.85249568)
0.5797 TDB
period 166926.9421251462
457.02
16.611
0.04548
d
yr
n .002156632089564701 2.1461e-07 deg/d
Q 83.26968134305942 0.0055242 au
  Orbit Determination Parameters
   # obs. used (total)      84  
   data-arc span      7318 days (20.04 yr)  
   first obs. used      2000-02-05  
   last obs. used      2020-02-18  
   planetary ephem.      DE431  
   SB-pert. ephem.      SB431-N16  
   condition code      2  
   norm. resid. RMS      .63471  
   source      ORB  
   producer      Otto Matic  
   solution date      2020-Nov-12 22:42:16  

Additional Information
 Earth MOID = 34.4449 au 
 Jupiter MOID = 30.3181 au 
 T_jup = 5.904 
[ show covariance matrix ]

Ephemeris | Orbit Diagram | Orbital Elements | Physical Parameters | Discovery Circumstances ]

Physical Parameter Table
Parameter Symbol Value Units Sigma Reference Notes
absolute magnitude H 6.7   n/a MPO337732  

60458 (2000 CM114)          Discovered 2000-Feb-05 by Buie, M. W. at Kitt Peak
Reference: 20030614/Numbers.arcLast Updated: 2004-04-19
Ephemeris | Orbit Diagram | Orbital Elements | Physical Parameters | Discovery Circumstances ]
ABOUT SSD CREDITS/AWARDS PRIVACY/COPYRIGHT GLOSSARY LINKS
FirstGov 2020-Nov-25 02:19 UT
(server date/time)  
NASA Home Page
Site Manager:   Ryan S. Park
Webmaster  Alan B. Chamberlin